Location: Mountain View
(37.3861°N, 122.0839°W)
Time: 19:34:55
(UTC-07:00)

Envisat - Pass Details

Date: 14 May 2026
Orbit: 761 x 763 km, 98.4° (Epoch: 9 June)

Event Time Altitude Azimuth Distance (km) Brightness Sun altitude
Rises 02:35:25 0° 31° (NNE) 3,228 7.4 -30.0°
Reaches altitude 10° 02:38:26 10° 50° (NE) 2,297 6.2 -29.7°
Maximum altitude 02:41:52 18° 93° (E) 1,790 5.1 -29.4°
Enters shadow 02:42:57 17° 109° (ESE) 1,844 5.0 -29.3°
